K3ZED-2 Weather Reports


time (UTC)temp
C
wind
direction
speed
KPH
gust
KPH
rain 1hr
cm
rain 24hr
cm
rain mn
cm
humidity
%
barometer
mb
20260510141531 20 249 0.0 16.1 0.00 0.00 0.00 69 1013.9
20260510140022 19 249 6.4 17.7 0.00 0.00 0.00 71 1013.9
20260510134518 18 251 6.4 16.1 0.00 0.00 0.00 75 1013.7
20260510133016 17 230 0.0 0.0 0.00 0.00 0.00 83 1013.7
20260510131510 16 253 0.0 0.0 0.00 0.00 0.00 85 1013.8
20260510130009 15 260 0.0 0.0 0.00 0.00 0.00 92 1013.9
20260510124501 14 258 0.0 0.0 0.00 0.00 0.00 96 1013.9
20260510123116 13 228 0.0 1.6 0.00 0.00 0.00 98 1013.7
20260510121554 12 307 0.0 0.0 0.00 0.00 0.00 98 1013.7
20260510120050 11 307 0.0 0.0 0.00 0.00 0.00 98 1013.6
20260510114546 11 307 0.0 0.0 0.00 0.00 0.00 98 1013.2
20260510113042 10 307 0.0 0.0 0.00 0.00 0.00 97 1013.0
20260510111542 10 334 0.0 0.0 0.00 0.00 0.00 98 1012.9
20260510110039 10 334 0.0 0.0 0.00 0.00 0.00 97 1013.0
20260510104538 8 323 0.0 0.0 0.00 0.00 0.00 97 1013.0
20260510103035 8 301 0.0 0.0 0.00 0.00 0.00 97 1012.6
20260510101535 8 301 0.0 0.0 0.00 0.00 0.00 96 1012.3
20260510100036 8 300 0.0 0.0 0.00 0.00 0.00 96 1012.1
20260510094540 8 300 0.0 0.0 0.00 0.00 0.00 96 1012.0
20260510093031 8 300 0.0 1.6 0.00 0.00 0.00 96 1012.1
20260510091530 8 41 0.0 0.0 0.00 0.00 0.00 95 1011.9
20260510090030 9 41 0.0 0.0 0.00 0.00 0.00 96 1011.8
20260510084529 10 132 0.0 0.0 0.00 0.00 0.00 96 1011.9
20260510083028 10 90 0.0 0.0 0.00 0.00 0.00 97 1012.1
20260510081535 9 356 0.0 19.3 0.00 0.00 0.00 98 1011.8
20260510080022 7 331 0.0 0.0 0.00 0.00 0.00 96 1011.3
20260510074521 7 331 0.0 3.2 0.00 0.00 0.00 97 1011.4
20260510073020 7 95 0.0 0.0 0.00 0.00 0.00 95 1011.2
20260510071520 7 95 0.0 0.0 0.00 0.00 0.00 96 1011.1
20260510070021 7 95 0.0 0.0 0.00 0.00 0.00 96 1011.0
20260510064520 7 95 0.0 0.0 0.00 0.00 0.00 95 1010.8
20260510063017 7 127 0.0 0.0 0.00 0.00 0.00 95 1010.6
20260510061522 7 127 0.0 0.0 0.00 0.00 0.00 95 1010.8
20260510060012 7 127 0.0 0.0 0.00 0.00 0.00 95 1010.8
20260510054511 7 127 0.0 0.0 0.00 0.00 0.00 95 1010.9
20260510053008 7 127 0.0 0.0 0.00 0.00 0.00 95 1011.1
20260510051516 7 127 0.0 0.0 0.00 0.00 0.00 94 1011.2
20260510050005 7 127 0.0 0.0 0.00 0.00 0.00 94 1011.3
20260510044508 7 127 0.0 0.0 0.00 0.00 0.00 94 1011.3
20260510043004 8 127 0.0 0.0 0.00 0.00 0.00 94 1011.3
20260510041636 8 127 0.0 0.0 0.00 0.00 0.00 94 1011.3
20260510040058 8 127 0.0 0.0 0.00 0.00 0.00 94 1011.4
20260510034559 8 127 0.0 0.0 0.00 0.00 0.00 94 1011.5
20260510033116 8 127 0.0 0.0 0.00 0.00 0.00 93 1011.4
20260510031557 8 127 0.0 0.0 0.00 0.00 0.00 94 1011.3
20260510030053 9 127 0.0 0.0 0.00 0.00 0.00 93 1011.1
20260510024609 9 127 0.0 0.0 0.00 0.00 0.00 93 1011.0
20260510023058 9 127 0.0 0.0 0.00 0.00 0.00 92 1010.9
20260510021552 10 127 0.0 0.0 0.00 0.00 0.00 92 1011.1
20260510020051 10 127 0.0 0.0 0.00 0.00 0.00 92 1011.0
20260510014611 10 127 0.0 0.0 0.00 0.00 0.00 91 1010.8
20260510013101 10 127 0.0 0.0 0.00 0.00 0.00 90 1010.6
20260510011549 11 127 0.0 0.0 0.00 0.00 0.00 90 1010.5
20260510010048 11 128 0.0 0.0 0.00 0.00 0.00 89 1010.3
20260510004550 12 127 0.0 0.0 0.00 0.00 0.00 87 1010.2
20260510003048 12 127 0.0 0.0 0.00 0.00 0.00 86 1010.2
20260510001547 13 124 0.0 0.0 0.00 0.00 0.00 85 1010.1
20260510000046 13 129 0.0 0.0 0.00 0.00 0.00 83 1010.1
20260509234546 14 119 0.0 1.6 0.00 0.00 0.00 82 1010.1
20260509233050 15 98 0.0 3.2 0.00 0.00 0.00 80 1010.1
20260509231552 15 98 0.0 0.0 0.00 0.00 0.00 78 1010.0
20260509230044 16 129 0.0 3.2 0.00 0.00 0.00 77 1010.0
20260509224544 16 123 0.0 0.0 0.00 0.00 0.00 77 1009.9
20260509223046 15 118 0.0 4.8 0.00 0.00 0.00 79 1010.0
20260509221545 15 80 0.0 0.0 0.00 0.00 0.00 78 1010.2
20260509220044 15 64 0.0 0.0 0.00 0.00 0.00 79 1010.1
20260509214542 15 101 0.0 0.0 0.00 0.00 0.00 79 1010.1
20260509213043 15 36 0.0 0.0 0.00 0.00 0.00 81 1010.1
20260509211541 15 30 0.0 3.2 0.00 0.00 0.00 81 1010.1
20260509210050 15 84 0.0 0.0 0.00 0.00 0.00 78 1010.0
20260509204538 15 326 0.0 0.0 0.00 0.00 0.00 79 1010.2
20260509203038 15 102 0.0 0.0 0.00 0.00 0.00 77 1010.1
20260509201538 15 6 0.0 0.0 0.00 0.00 0.00 76 1010.3
20260509200046 15 53 0.0 0.0 0.00 0.00 0.00 76 1010.2
20260509194537 15 79 0.0 8.0 0.00 0.00 0.00 76 1010.1
20260509193035 15 318 0.0 16.1 0.00 0.00 0.00 80 1010.4
20260509191535 14 14 0.0 8.0 0.00 0.00 0.00 81 1010.5
20260509190038 14 323 4.8 17.7 0.00 0.00 0.00 80 1011.0
20260509184535 14 299 3.2 12.9 0.00 0.00 0.00 80 1011.2
20260509183028 14 337 0.0 12.9 0.00 0.00 0.00 78 1011.5
20260509181527 14 16 0.0 0.0 0.00 0.00 0.00 77 1011.5
20260509180027 15 335 1.6 9.7 0.00 0.00 0.00 76 1011.5
20260509174526 15 337 0.0 1.6 0.00 0.00 0.00 77 1011.6
20260509173052 15 12 0.0 3.2 0.00 0.00 0.00 80 1011.5
20260509171530 15 356 0.0 0.0 0.00 0.00 0.00 75 1011.8
20260509170024 15 301 0.0 0.0 0.00 0.00 0.00 73 1011.8
20260509164524 15 301 0.0 0.0 0.00 0.00 0.00 74 1011.7
20260509163025 15 229 0.0 0.0 0.00 0.00 0.00 71 1011.7
20260509161524 16 205 0.0 0.0 0.00 0.00 0.00 73 1011.7
20260509160024 16 232 0.0 0.0 0.00 0.00 0.00 72 1011.7
20260509154522 16 249 0.0 0.0 0.00 0.00 0.00 72 1012.0
20260509153030 16 215 0.0 1.6 0.00 0.00 0.00 75 1012.4
20260509151521 16 223 0.0 3.2 0.00 0.00 0.00 75 1012.5
20260509150019 15 221 1.6 14.5 0.00 0.00 0.00 77 1012.5
20260509144519 15 212 3.2 19.3 0.00 0.00 0.00 76 1012.5
20260509143019 15 224 4.8 30.6 0.00 0.00 0.00 75 1012.5